When you browse on this site, cookies collect data to enhance your experience and personalize the content and advertising you see.
Visit our Privacy Policy to learn more. By continuing to use the site, you agree to this use of cookies and data.
  • In Germany
  • List of Countries
  • For 7 days
  • Water Temperature
  • Weather Map
  • Weather Widgets
  • user-avatar
    Login

    Hourly Weather Dangriga

    Today, 17 January, Friday

    Time Temperature Precipitation Wind Pressure Humidity
    00:00 +23°C° 0 mm 6 mps 762 mmHg 99%
    01:00 +23°C° 1 mm 6 mps 761 mmHg 99%
    02:00 +23°C° 1 mm 6 mps 761 mmHg 99%
    03:00 +23°C° 1 mm 5 mps 761 mmHg 99%
    04:00 +23°C° 1 mm 5 mps 761 mmHg 99%
    05:00 +23°C° 1 mm 5 mps 762 mmHg 99%
    06:00 +23°C° 1 mm 5 mps 762 mmHg 99%
    07:00 +25°C° 0.9 mm 5 mps 762 mmHg 98%
    08:00 +26°C° 0.9 mm 6 mps 763 mmHg 98%
    09:00 +26°C° 0.9 mm 6 mps 763 mmHg 97%
    10:00 +26°C° 1 mm 6 mps 763 mmHg 97%
    11:00 +27°C° 1 mm 6 mps 763 mmHg 97%
    12:00 +27°C° 1 mm 6 mps 763 mmHg 96%
    13:00 +27°C° 0.7 mm 5 mps 762 mmHg 96%
    14:00 +27°C° 0.7 mm 5 mps 761 mmHg 96%
    15:00 +27°C° 0.7 mm 5 mps 761 mmHg 96%
    16:00 +26°C° 0.8 mm 5 mps 761 mmHg 97%
    17:00 +25°C° 0.8 mm 5 mps 761 mmHg 98%
    18:00 +25°C° 0.8 mm 5 mps 761 mmHg 98%
    19:00 +25°C° 0.9 mm 5 mps 761 mmHg 98%
    20:00 +25°C° 0.9 mm 5 mps 762 mmHg 99%
    21:00 +25°C° 0.9 mm 5 mps 762 mmHg 99%
    22:00 +23°C° 0.7 mm 5 mps 762 mmHg 99%
    23:00 +23°C° 0.7 mm 5 mps 762 mmHg 99%

    Tomorrow, 18 January, Saturday

    Time Temperature Precipitation Wind Pressure Humidity
    00:00 +23°C° 0.7 mm 5 mps 761 mmHg 98%
    01:00 +23°C° 0.6 mm 5 mps 761 mmHg 98%
    02:00 +23°C° 0.6 mm 5 mps 761 mmHg 98%
    03:00 +23°C° 0.6 mm 5 mps 761 mmHg 99%
    04:00 +23°C° 0.8 mm 5 mps 761 mmHg 99%
    05:00 +23°C° 0.8 mm 5 mps 761 mmHg 99%
    06:00 +23°C° 0.8 mm 5 mps 761 mmHg 99%
    07:00 +25°C° 0.7 mm 5 mps 762 mmHg 97%
    08:00 +25°C° 0.7 mm 5 mps 762 mmHg 96%
    09:00 +26°C° 0.7 mm 5 mps 763 mmHg 95%
    10:00 +27°C° 0.7 mm 5 mps 763 mmHg 92%
    11:00 +27°C° 0.7 mm 6 mps 762 mmHg 89%
    12:00 +28°C° 0.7 mm 6 mps 762 mmHg 86%
    13:00 +27°C° 0.5 mm 6 mps 761 mmHg 88%
    14:00 +27°C° 0.5 mm 6 mps 761 mmHg 89%
    15:00 +27°C° 0.5 mm 6 mps 760 mmHg 90%
    16:00 +26°C° 0.5 mm 5 mps 760 mmHg 93%
    17:00 +25°C° 0.5 mm 5 mps 760 mmHg 95%
    18:00 +23°C° 0.5 mm 4 mps 761 mmHg 98%
    19:00 +23°C° 0.3 mm 4 mps 761 mmHg 98%
    20:00 +23°C° 0.3 mm 4 mps 761 mmHg 98%
    21:00 +24°C° 0.3 mm 3 mps 761 mmHg 98%
    22:00 +24°C° 0.1 mm 3 mps 761 mmHg 98%
    23:00 +24°C° 0.1 mm 3 mps 761 mmHg 98%

    Day after tomorrow, 19 January, Sunday

    Time Temperature Precipitation Wind Pressure Humidity
    00:00 +23°C° 0.1 mm 4 mps 761 mmHg 98%
    01:00 +23°C° 0.3 mm 4 mps 761 mmHg 98%
    02:00 +23°C° 0.3 mm 4 mps 760 mmHg 98%
    03:00 +23°C° 0.3 mm 4 mps 760 mmHg 98%
    04:00 +23°C° 0.6 mm 4 mps 760 mmHg 98%
    05:00 +24°C° 0.6 mm 3 mps 760 mmHg 98%
    06:00 +22°C° 0.6 mm 3 mps 761 mmHg 98%
    07:00 +25°C° 0.8 mm 3 mps 761 mmHg 96%
    08:00 +26°C° 0.8 mm 3 mps 762 mmHg 94%
    09:00 +27°C° 0.8 mm 3 mps 762 mmHg 91%
    10:00 +27°C° 1.2 mm 3 mps 762 mmHg 90%
    11:00 +28°C° 1.2 mm 3 mps 762 mmHg 89%
    12:00 +28°C° 1.2 mm 2 mps 761 mmHg 88%
    13:00 +28°C° 0.4 mm 3 mps 761 mmHg 86%
    14:00 +28°C° 0.4 mm 3 mps 760 mmHg 83%
    15:00 +28°C° 0.4 mm 4 mps 760 mmHg 81%
    16:00 +27°C° 0.1 mm 3 mps 760 mmHg 85%
    17:00 +26°C° 0.1 mm 3 mps 760 mmHg 90%
    18:00 +25°C° 0.1 mm 3 mps 761 mmHg 94%
    19:00 +25°C° 0.4 mm 3 mps 761 mmHg 94%
    20:00 +24°C° 0.4 mm 3 mps 762 mmHg 95%
    21:00 +24°C° 0.4 mm 2 mps 762 mmHg 95%
    22:00 +24°C° 0.4 mm 2 mps 762 mmHg 95%
    23:00 +24°C° 0.4 mm 3 mps 762 mmHg 95%

    20 January, Monday

    Time Temperature Precipitation Wind Pressure Humidity
    00:00 +22°C° 0.4 mm 3 mps 762 mmHg 95%
    01:00 +22°C° 0.1 mm 3 mps 762 mmHg 94%
    02:00 +22°C° 0.1 mm 3 mps 761 mmHg 94%
    03:00 +22°C° 0.1 mm 4 mps 761 mmHg 93%
    04:00 +22°C° 0.2 mm 4 mps 761 mmHg 93%
    05:00 +22°C° 0.2 mm 4 mps 762 mmHg 94%
    06:00 +21°C° 0.2 mm 5 mps 762 mmHg 94%
    07:00 +23°C° 0 mm 5 mps 763 mmHg 88%
    08:00 +26°C° 0 mm 5 mps 763 mmHg 82%
    09:00 +27°C° 0 mm 5 mps 764 mmHg 76%
    10:00 +28°C° 0 mm 5 mps 763 mmHg 70%
    11:00 +30°C° 0 mm 4 mps 763 mmHg 64%
    12:00 +32°C° 0 mm 4 mps 763 mmHg 58%
    13:00 +32°C° 0.1 mm 4 mps 762 mmHg 57%
    14:00 +32°C° 0.1 mm 4 mps 762 mmHg 56%
    15:00 +32°C° 0.1 mm 5 mps 761 mmHg 55%
    16:00 +29°C° 0 mm 4 mps 761 mmHg 66%
    17:00 +27°C° 0 mm 4 mps 761 mmHg 77%
    18:00 +25°C° 0 mm 4 mps 761 mmHg 88%
    19:00 +23°C° 0.1 mm 4 mps 762 mmHg 89%
    20:00 +23°C° 0.1 mm 4 mps 762 mmHg 91%
    21:00 +22°C° 0.1 mm 3 mps 763 mmHg 92%
    22:00 +22°C° 0.2 mm 3 mps 763 mmHg 91%
    23:00 +22°C° 0.2 mm 3 mps 763 mmHg 90%

    21 January, Tuesday

    Time Temperature Precipitation Wind Pressure Humidity
    00:00 +22°C° 0.2 mm 3 mps 762 mmHg 89%
    01:00 +22°C° 0.3 mm 4 mps 762 mmHg 90%
    02:00 +22°C° 0.3 mm 4 mps 762 mmHg 92%
    03:00 +21°C° 0.3 mm 5 mps 762 mmHg 94%
    04:00 +21°C° 0.2 mm 5 mps 762 mmHg 95%
    05:00 +21°C° 0.2 mm 6 mps 762 mmHg 95%
    06:00 +21°C° 0.2 mm 6 mps 763 mmHg 96%
    07:00 +22°C° 0 mm 6 mps 763 mmHg 92%
    08:00 +23°C° 0 mm 6 mps 764 mmHg 87%
    09:00 +24°C° 0 mm 6 mps 764 mmHg 82%
    10:00 +24°C° 0.1 mm 6 mps 764 mmHg 80%
    11:00 +25°C° 0.1 mm 5 mps 764 mmHg 78%
    12:00 +26°C° 0.1 mm 5 mps 763 mmHg 76%
    13:00 +26°C° 0 mm 5 mps 763 mmHg 74%
    14:00 +27°C° 0 mm 5 mps 762 mmHg 71%
    15:00 +27°C° 0 mm 5 mps 762 mmHg 69%
    16:00 +26°C° 0.1 mm 5 mps 762 mmHg 76%
    17:00 +24°C° 0.1 mm 6 mps 762 mmHg 83%
    18:00 +22°C° 0.1 mm 6 mps 762 mmHg 89%
    19:00 +22°C° 0.1 mm 6 mps 762 mmHg 91%
    20:00 +21°C° 0.1 mm 6 mps 763 mmHg 92%
    21:00 +21°C° 0.1 mm 6 mps 763 mmHg 94%
    22:00 +21°C° 0.1 mm 6 mps 763 mmHg 95%
    23:00 +21°C° 0.1 mm 6 mps 763 mmHg 96%

    22 January, Wednesday

    Time Temperature Precipitation Wind Pressure Humidity
    00:00 +20°C° 0.1 mm 5 mps 763 mmHg 96%
    01:00 +20°C° 0.1 mm 5 mps 762 mmHg 97%
    02:00 +20°C° 0.1 mm 5 mps 762 mmHg 97%
    03:00 +20°C° 0.1 mm 4 mps 762 mmHg 97%
    04:00 +20°C° 0.1 mm 4 mps 762 mmHg 96%
    05:00 +20°C° 0.1 mm 4 mps 762 mmHg 95%
    06:00 +21°C° 0.1 mm 4 mps 762 mmHg 94%
    07:00 +22°C° 0.1 mm 4 mps 762 mmHg 89%
    08:00 +23°C° 0.1 mm 4 mps 762 mmHg 84%
    09:00 +25°C° 0.1 mm 4 mps 763 mmHg 79%
    10:00 +25°C° 0 mm 4 mps 762 mmHg 79%
    11:00 +25°C° 0 mm 4 mps 762 mmHg 78%
    12:00 +26°C° 0 mm 4 mps 762 mmHg 78%
    13:00 +26°C° 0 mm 4 mps 761 mmHg 76%
    14:00 +27°C° 0 mm 4 mps 760 mmHg 73%
    15:00 +27°C° 0 mm 4 mps 759 mmHg 71%
    16:00 +26°C° 0 mm 4 mps 759 mmHg 78%
    17:00 +25°C° 0 mm 4 mps 759 mmHg 86%
    18:00 +22°C° 0 mm 4 mps 760 mmHg 93%
    19:00 +22°C° 0 mm 4 mps 760 mmHg 94%
    20:00 +22°C° 0 mm 4 mps 761 mmHg 94%
    21:00 +22°C° 0 mm 4 mps 761 mmHg 95%
    22:00 +22°C° 0 mm 4 mps 761 mmHg 95%
    23:00 +22°C° 0 mm 4 mps 761 mmHg 95%
    Show more